Time,TemperatureF,DewpointF,PressureIn,WindDirection,WindDirectionDegrees,WindSpeedMPH,WindSpeedGustMPH,Humidity,HourlyPrecipIn,Conditions,Clouds,dailyrainin,SoftwareType,DateUTC
2013-01-01 00:01:00,60.3,58.6,29.37,NNE,23,0.7,1.1,94,0.00,,,0.00,WUHU216HW,2013-01-01 06:01:00,
2013-01-01 00:06:00,60.3,58.6,29.38,NE,45,1.1,1.1,94,0.00,,,0.00,WUHU216HW,2013-01-01 06:06:00,
2013-01-01 00:11:00,60.1,58.4,29.38,North,0,1.1,1.1,94,0.00,,,0.00,WUHU216HW,2013-01-01 06:11:00,
2013-01-01 00:16:00,60.1,58.7,29.37,NNE,23,1.8,1.8,95,0.00,,,0.00,WUHU216HW,2013-01-01 06:16:00,
2013-01-01 00:21:00,60.1,58.7,29.38,NNE,23,2.7,2.7,95,0.00,,,0.00,WUHU216HW,2013-01-01 06:21:00,
2013-01-01 00:26:00,60.1,58.7,29.38,NNE,23,2.2,2.7,95,0.00,,,0.00,WUHU216HW,2013-01-01 06:26:00,
2013-01-01 00:31:00,60.1,58.4,29.38,NNE,23,1.1,2.5,94,0.00,,,0.00,WUHU216HW,2013-01-01 06:31:00,
2013-01-01 00:36:00,60.1,58.4,29.38,ENE,68,3.4,3.4,94,0.00,,,0.00,WUHU216HW,2013-01-01 06:36:00,
2013-01-01 00:41:00,60.1,58.4,29.38,ESE,113,1.6,3.4,94,0.00,,,0.00,WUHU216HW,2013-01-01 06:41:00,
2013-01-01 00:46:00,60.1,58.4,29.38,NE,45,1.3,2.0,94,0.00,,,0.00,WUHU216HW,2013-01-01 06:46:00,
2013-01-01 00:51:00,60.1,58.4,29.38,NNE,23,1.1,1.8,94,0.00,,,0.00,WUHU216HW,2013-01-01 06:51:00,
2013-01-01 00:56:00,60.1,58.2,29.38,ENE,68,1.1,1.1,93,0.00,,,0.00,WUHU216HW,2013-01-01 06:56:00,
2013-01-01 01:01:00,59.9,58.0,29.38,NNW,338,0.2,1.1,93,0.00,,,0.00,WUHU216HW,2013-01-01 07:01:00,
2013-01-01 01:06:00,59.9,58.0,29.38,North,0,0.7,1.1,93,0.00,,,0.00,WUHU216HW,2013-01-01 07:06:00,
2013-01-01 01:11:00,59.9,58.0,29.38,NNE,23,0.4,1.1,93,0.00,,,0.00,WUHU216HW,2013-01-01 07:11:00,
2013-01-01 01:16:00,59.9,58.2,29.38,NNE,23,0.9,1.3,94,0.00,,,0.00,WUHU216HW,2013-01-01 07:16:00,
2013-01-01 01:21:00,59.8,58.1,29.38,NNE,23,1.3,1.8,94,0.00,,,0.00,WUHU216HW,2013-01-01 07:21:00,
2013-01-01 01:27:00,59.8,58.3,29.38,NNE,23,1.8,1.8,95,0.00,,,0.00,WUHU216HW,2013-01-01 07:27:00,
2013-01-01 01:32:00,59.6,57.6,29.38,NE,45,1.1,1.8,93,0.00,,,0.00,WUHU216HW,2013-01-01 07:32:00,
2013-01-01 01:37:00,59.6,57.6,29.37,North,0,1.3,1.8,93,0.00,,,0.00,WUHU216HW,2013-01-01 07:37:00,
2013-01-01 01:42:00,59.4,57.7,29.37,NNE,23,1.8,1.8,94,0.00,,,0.00,WUHU216HW,2013-01-01 07:42:00,
2013-01-01 01:47:00,59.4,57.7,29.37,North,0,1.3,2.9,94,0.00,,,0.00,WUHU216HW,2013-01-01 07:47:00,
2013-01-01 01:52:00,59.4,57.7,29.37,NE,45,1.8,2.9,94,0.00,,,0.00,WUHU216HW,2013-01-01 07:52:00,
2013-01-01 01:57:00,59.4,57.7,29.37,NNE,23,1.8,2.5,94,0.00,,,0.00,WUHU216HW,2013-01-01 07:57:00,
2013-01-01 02:02:00,59.2,57.5,29.37,NNE,23,1.8,2.2,94,0.00,,,0.00,WUHU216HW,2013-01-01 08:02:00,
2013-01-01 02:07:00,59.2,57.5,29.37,North,0,2.0,2.0,94,0.00,,,0.00,WUHU216HW,2013-01-01 08:07:00,
2013-01-01 02:12:00,59.0,57.3,29.37,North,0,2.2,2.5,94,0.00,,,0.00,WUHU216HW,2013-01-01 08:12:00,
2013-01-01 02:17:00,59.0,57.3,29.37,North,0,3.4,3.6,94,0.00,,,0.00,WUHU216HW,2013-01-01 08:17:00,
2013-01-01 02:22:00,59.0,57.3,29.37,NNE,23,3.8,3.8,94,0.00,,,0.00,WUHU216HW,2013-01-01 08:22:00,
2013-01-01 02:27:00,59.0,57.3,29.37,NNE,23,1.3,3.8,94,0.00,,,0.00,WUHU216HW,2013-01-01 08:27:00,
2013-01-01 02:32:00,58.9,57.2,29.37,North,0,4.0,4.0,94,0.00,,,0.00,WUHU216HW,2013-01-01 08:32:00,
2013-01-01 02:37:00,58.9,57.2,29.37,NE,45,1.8,4.0,94,0.00,,,0.00,WUHU216HW,2013-01-01 08:37:00,
2013-01-01 02:42:00,58.9,56.9,29.37,NNE,23,3.4,3.8,93,0.00,,,0.00,WUHU216HW,2013-01-01 08:42:00,
2013-01-01 02:47:00,58.7,56.7,29.37,NE,45,1.8,3.8,93,0.01,,,0.01,WUHU216HW,2013-01-01 08:47:00,
2013-01-01 02:52:00,58.7,56.7,29.37,North,0,1.8,2.5,93,0.01,,,0.01,WUHU216HW,2013-01-01 08:52:00,
2013-01-01 02:57:00,58.7,57.0,29.38,North,0,1.8,2.5,94,0.01,,,0.01,WUHU216HW,2013-01-01 08:57:00,
2013-01-01 03:02:00,58.7,57.0,29.38,NNE,23,2.0,2.5,94,0.01,,,0.01,WUHU216HW,2013-01-01 09:02:00,
2013-01-01 03:07:00,58.7,57.0,29.39,NNE,23,2.9,2.9,94,0.01,,,0.01,WUHU216HW,2013-01-01 09:07:00,
2013-01-01 03:12:00,58.5,56.8,29.39,NNE,23,3.4,3.4,94,0.01,,,0.01,WUHU216HW,2013-01-01 09:12:00,
2013-01-01 03:18:00,58.5,56.5,29.39,North,0,3.6,3.6,93,0.01,,,0.01,WUHU216HW,2013-01-01 09:18:00,
2013-01-01 03:23:00,58.3,56.4,29.39,ENE,68,3.6,3.6,93,0.01,,,0.01,WUHU216HW,2013-01-01 09:23:00,
2013-01-01 03:28:00,58.3,56.4,29.40,NNE,23,1.8,3.6,93,0.01,,,0.01,WUHU216HW,2013-01-01 09:28:00,
2013-01-01 03:33:00,58.1,56.2,29.40,NNE,23,4.3,4.3,93,0.01,,,0.01,WUHU216HW,2013-01-01 09:33:00,
2013-01-01 03:38:00,58.0,56.0,29.40,NE,45,3.4,4.7,93,0.01,,,0.01,WUHU216HW,2013-01-01 09:38:00,
2013-01-01 03:43:00,57.8,55.4,29.40,North,0,4.5,4.9,92,0.01,,,0.01,WUHU216HW,2013-01-01 09:43:00,
2013-01-01 03:48:00,57.2,54.6,29.40,NNE,23,5.6,5.6,91,0.00,,,0.01,WUHU216HW,2013-01-01 09:48:00,
2013-01-01 03:53:00,56.7,53.2,29.41,NNE,23,5.4,6.9,88,0.00,,,0.01,WUHU216HW,2013-01-01 09:53:00,
2013-01-01 03:58:00,56.2,52.7,29.41,North,0,4.5,6.9,88,0.00,,,0.01,WUHU216HW,2013-01-01 09:58:00,
2013-01-01 04:03:00,55.8,52.6,29.41,NNE,23,3.1,6.0,89,0.00,,,0.01,WUHU216HW,2013-01-01 10:03:00,
2013-01-01 04:08:00,55.4,52.6,29.41,NNW,338,3.1,4.5,90,0.00,,,0.01,WUHU216HW,2013-01-01 10:08:00,
2013-01-01 04:13:00,55.1,52.5,29.42,North,0,3.4,4.5,91,0.00,,,0.01,WUHU216HW,2013-01-01 10:13:00,
2013-01-01 04:18:00,54.9,52.6,29.41,NNW,338,3.1,4.5,92,0.01,,,0.02,WUHU216HW,2013-01-01 10:18:00,
2013-01-01 04:23:00,54.7,52.4,29.41,NE,45,2.2,3.8,92,0.02,,,0.03,WUHU216HW,2013-01-01 10:23:00,
2013-01-01 04:28:00,54.5,52.2,29.41,North,0,4.3,4.3,92,0.02,,,0.03,WUHU216HW,2013-01-01 10:28:00,
2013-01-01 04:33:00,54.4,52.4,29.41,NE,45,2.2,4.7,93,0.02,,,0.03,WUHU216HW,2013-01-01 10:33:00,
2013-01-01 04:38:00,54.4,52.4,29.41,NNE,23,2.0,4.7,93,0.02,,,0.03,WUHU216HW,2013-01-01 10:38:00,
2013-01-01 04:43:00,54.4,52.4,29.41,North,0,2.0,3.6,93,0.03,,,0.03,WUHU216HW,2013-01-01 10:43:00,
2013-01-01 04:48:00,54.2,52.2,29.42,North,0,1.6,3.4,93,0.03,,,0.04,WUHU216HW,2013-01-01 10:48:00,
2013-01-01 04:53:00,54.0,52.0,29.42,NNE,23,2.2,2.7,93,0.03,,,0.04,WUHU216HW,2013-01-01 10:53:00,
2013-01-01 04:58:00,54.0,52.0,29.42,NNW,338,3.1,3.4,93,0.03,,,0.04,WUHU216HW,2013-01-01 10:58:00,
2013-01-01 05:03:00,54.0,52.0,29.42,NNE,23,1.8,3.4,93,0.03,,,0.04,WUHU216HW,2013-01-01 11:03:00,
2013-01-01 05:08:00,53.8,51.2,29.42,North,0,4.0,5.6,91,0.03,,,0.04,WUHU216HW,2013-01-01 11:08:00,
2013-01-01 05:14:00,53.8,50.9,29.42,NNE,23,4.3,5.6,90,0.04,,,0.05,WUHU216HW,2013-01-01 11:14:00,
2013-01-01 05:19:00,53.5,50.9,29.42,North,0,4.7,5.1,91,0.04,,,0.06,WUHU216HW,2013-01-01 11:19:00,
2013-01-01 05:24:00,53.1,50.8,29.42,NNE,23,3.6,4.7,92,0.04,,,0.07,WUHU216HW,2013-01-01 11:24:00,
2013-01-01 05:29:00,52.9,50.6,29.42,NNE,23,2.2,3.8,92,0.04,,,0.07,WUHU216HW,2013-01-01 11:29:00,
2013-01-01 05:34:00,52.9,50.6,29.43,NNE,23,2.5,3.6,92,0.04,,,0.07,WUHU216HW,2013-01-01 11:34:00,
2013-01-01 05:39:00,52.9,51.0,29.43,NW,315,2.5,3.4,93,0.04,,,0.07,WUHU216HW,2013-01-01 11:39:00,
2013-01-01 05:44:00,52.9,51.0,29.43,NNE,23,2.5,3.6,93,0.03,,,0.07,WUHU216HW,2013-01-01 11:44:00,
2013-01-01 05:49:00,52.9,51.0,29.43,North,0,3.1,3.6,93,0.03,,,0.07,WUHU216HW,2013-01-01 11:49:00,
2013-01-01 05:54:00,52.7,51.0,29.43,North,0,2.2,3.4,94,0.03,,,0.07,WUHU216HW,2013-01-01 11:54:00,
2013-01-01 05:59:00,52.7,50.8,29.43,North,0,2.9,2.9,93,0.03,,,0.07,WUHU216HW,2013-01-01 11:59:00,
2013-01-01 06:04:00,52.7,50.8,29.42,NNE,23,2.2,3.1,93,0.03,,,0.07,WUHU216HW,2013-01-01 12:04:00,
2013-01-01 06:09:00,52.7,50.8,29.43,North,0,2.7,3.1,93,0.02,,,0.07,WUHU216HW,2013-01-01 12:09:00,
2013-01-01 06:14:00,52.9,51.0,29.43,North,0,2.5,3.4,93,0.01,,,0.07,WUHU216HW,2013-01-01 12:14:00,
2013-01-01 06:19:00,52.9,51.0,29.44,ENE,68,1.6,3.4,93,0.00,,,0.07,WUHU216HW,2013-01-01 12:19:00,
2013-01-01 06:24:00,52.9,51.0,29.43,NNE,23,1.8,2.9,93,0.00,,,0.07,WUHU216HW,2013-01-01 12:24:00,
2013-01-01 06:29:00,52.9,51.0,29.44,NE,45,3.6,3.6,93,0.00,,,0.07,WUHU216HW,2013-01-01 12:29:00,
2013-01-01 06:34:00,52.9,51.0,29.44,NNE,23,2.9,3.6,93,0.00,,,0.07,WUHU216HW,2013-01-01 12:34:00,
2013-01-01 06:39:00,53.1,51.1,29.44,NNE,23,5.4,5.4,93,0.00,,,0.07,WUHU216HW,2013-01-01 12:39:00,
2013-01-01 06:44:00,53.1,51.1,29.45,North,0,4.0,5.4,93,0.00,,,0.07,WUHU216HW,2013-01-01 12:44:00,
2013-01-01 06:49:00,53.1,51.1,29.44,NNW,338,3.4,4.7,93,0.00,,,0.07,WUHU216HW,2013-01-01 12:49:00,
2013-01-01 06:54:00,53.1,51.4,29.44,North,0,2.9,6.7,94,0.00,,,0.07,WUHU216HW,2013-01-01 12:54:00,
2013-01-01 06:59:00,53.3,51.6,29.44,North,0,2.5,6.7,94,0.00,,,0.07,WUHU216HW,2013-01-01 12:59:00,
2013-01-01 07:04:00,53.3,51.6,29.45,NNE,23,5.1,5.1,94,0.00,,,0.07,WUHU216HW,2013-01-01 13:04:00,
2013-01-01 07:09:00,53.3,51.8,29.45,North,0,2.0,5.1,95,0.00,,,0.07,WUHU216HW,2013-01-01 13:09:00,
2013-01-01 07:14:00,53.3,51.8,29.46,NNE,23,3.1,4.0,95,0.00,,,0.07,WUHU216HW,2013-01-01 13:14:00,
2013-01-01 07:19:00,53.3,51.8,29.46,NNE,23,2.2,4.0,95,0.00,,,0.07,WUHU216HW,2013-01-01 13:19:00,
2013-01-01 07:24:00,53.5,52.0,29.45,NNE,23,3.8,4.0,95,0.00,,,0.07,WUHU216HW,2013-01-01 13:24:00,
2013-01-01 07:29:00,53.3,51.8,29.46,North,0,3.4,4.0,95,0.00,,,0.07,WUHU216HW,2013-01-01 13:29:00,
2013-01-01 07:34:00,53.3,51.6,29.47,NNE,23,5.8,5.8,94,0.00,,,0.07,WUHU216HW,2013-01-01 13:34:00,
2013-01-01 07:39:00,53.1,51.4,29.47,NE,45,1.8,5.8,94,0.00,,,0.07,WUHU216HW,2013-01-01 13:39:00,
2013-01-01 07:44:00,53.1,51.4,29.47,NNE,23,2.7,4.7,94,0.00,,,0.07,WUHU216HW,2013-01-01 13:44:00,
2013-01-01 07:49:00,52.9,51.5,29.48,NE,45,2.5,4.7,95,0.00,,,0.07,WUHU216HW,2013-01-01 13:49:00,
2013-01-01 07:54:00,52.6,50.6,29.48,NNE,23,4.3,4.3,93,0.00,,,0.07,WUHU216HW,2013-01-01 13:54:00,
2013-01-01 07:59:00,52.2,50.2,29.49,North,0,2.5,4.3,93,0.01,,,0.08,WUHU216HW,2013-01-01 13:59:00,
2013-01-01 08:04:00,52.0,49.7,29.49,North,0,2.9,6.3,92,0.01,,,0.08,WUHU216HW,2013-01-01 14:04:00,
2013-01-01 08:09:00,51.8,49.9,29.49,NNE,23,1.8,6.3,93,0.01,,,0.08,WUHU216HW,2013-01-01 14:09:00,
2013-01-01 08:14:00,51.5,49.5,29.50,NNE,23,4.0,5.4,93,0.01,,,0.08,WUHU216HW,2013-01-01 14:14:00,
2013-01-01 08:19:00,51.5,49.5,29.51,North,0,2.5,5.4,93,0.01,,,0.08,WUHU216HW,2013-01-01 14:19:00,
2013-01-01 08:24:00,51.3,49.0,29.51,NNE,23,2.7,4.7,92,0.01,,,0.08,WUHU216HW,2013-01-01 14:24:00,
2013-01-01 08:29:00,51.1,49.2,29.51,NNE,23,2.2,4.7,93,0.01,,,0.08,WUHU216HW,2013-01-01 14:29:00,
2013-01-01 08:35:00,50.8,48.8,29.50,NNW,338,3.4,5.4,93,0.01,,,0.08,WUHU216HW,2013-01-01 14:35:00,
2013-01-01 08:40:00,50.8,48.8,29.51,NNE,23,4.0,5.4,93,0.01,,,0.08,WUHU216HW,2013-01-01 14:40:00,
2013-01-01 08:45:00,50.6,48.6,29.51,NE,45,4.0,5.6,93,0.01,,,0.08,WUHU216HW,2013-01-01 14:45:00,
2013-01-01 08:50:00,50.4,48.7,29.51,North,0,4.5,5.6,94,0.01,,,0.08,WUHU216HW,2013-01-01 14:50:00,
2013-01-01 08:55:00,50.4,48.7,29.52,NNE,23,1.8,4.5,94,0.00,,,0.08,WUHU216HW,2013-01-01 14:55:00,
2013-01-01 09:00:00,50.4,48.7,29.52,NE,45,2.5,3.4,94,0.00,,,0.08,WUHU216HW,2013-01-01 15:00:00,
2013-01-01 09:05:00,50.4,48.7,29.52,NE,45,2.7,4.3,94,0.00,,,0.08,WUHU216HW,2013-01-01 15:05:00,
2013-01-01 09:10:00,50.2,48.3,29.52,NW,315,1.1,4.3,93,0.00,,,0.08,WUHU216HW,2013-01-01 15:10:00,
2013-01-01 09:15:00,50.2,48.3,29.52,North,0,4.3,4.3,93,0.00,,,0.08,WUHU216HW,2013-01-01 15:15:00,
2013-01-01 09:20:00,50.2,48.3,29.52,North,0,5.8,5.8,93,0.00,,,0.08,WUHU216HW,2013-01-01 15:20:00,
2013-01-01 09:25:00,50.2,47.9,29.52,NNW,338,2.5,5.8,92,0.00,,,0.08,WUHU216HW,2013-01-01 15:25:00,
2013-01-01 09:30:00,50.2,48.3,29.52,NE,45,2.5,4.7,93,0.00,,,0.08,WUHU216HW,2013-01-01 15:30:00,
2013-01-01 09:35:00,50.2,48.3,29.53,North,0,4.0,4.0,93,0.00,,,0.08,WUHU216HW,2013-01-01 15:35:00,
2013-01-01 09:40:00,50.4,48.1,29.54,NNE,23,4.0,4.0,92,0.00,,,0.08,WUHU216HW,2013-01-01 15:40:00,
2013-01-01 09:45:00,50.4,48.4,29.54,NNE,23,3.8,5.4,93,0.00,,,0.08,WUHU216HW,2013-01-01 15:45:00,
2013-01-01 09:50:00,50.4,48.1,29.54,North,0,3.4,5.8,92,0.00,,,0.08,WUHU216HW,2013-01-01 15:50:00,
2013-01-01 09:55:00,50.4,48.1,29.55,NNE,23,3.1,5.8,92,0.00,,,0.08,WUHU216HW,2013-01-01 15:55:00,
2013-01-01 10:00:00,50.4,48.1,29.55,NW,315,2.9,5.1,92,0.00,,,0.08,WUHU216HW,2013-01-01 16:00:00,
2013-01-01 10:06:00,50.4,48.1,29.55,North,0,1.8,5.8,92,0.00,,,0.08,WUHU216HW,2013-01-01 16:06:00,
2013-01-01 10:11:00,50.6,48.2,29.55,North,0,2.7,5.8,92,0.00,,,0.08,WUHU216HW,2013-01-01 16:11:00,
2013-01-01 10:16:00,50.6,48.2,29.55,North,0,3.8,5.6,92,0.00,,,0.08,WUHU216HW,2013-01-01 16:16:00,
2013-01-01 10:21:00,50.6,48.2,29.55,North,0,3.4,5.6,92,0.00,,,0.08,WUHU216HW,2013-01-01 16:21:00,
2013-01-01 10:26:00,50.6,48.0,29.55,NNE,23,4.7,4.7,91,0.00,,,0.08,WUHU216HW,2013-01-01 16:26:00,
2013-01-01 10:31:00,50.4,47.8,29.55,NNW,338,4.7,5.8,91,0.00,,,0.08,WUHU216HW,2013-01-01 16:31:00,
2013-01-01 10:36:00,50.4,47.8,29.55,NNE,23,4.5,6.7,91,0.00,,,0.08,WUHU216HW,2013-01-01 16:36:00,
2013-01-01 10:41:00,50.8,47.9,29.56,NNE,23,5.1,7.2,90,0.00,,,0.08,WUHU216HW,2013-01-01 16:41:00,
2013-01-01 10:46:00,50.8,47.6,29.56,North,0,5.8,8.5,89,0.00,,,0.08,WUHU216HW,2013-01-01 16:46:00,
2013-01-01 10:51:00,50.9,47.8,29.56,NNW,338,4.7,8.5,89,0.00,,,0.08,WUHU216HW,2013-01-01 16:51:00,
2013-01-01 10:56:00,51.1,48.0,29.56,North,0,6.9,7.2,89,0.00,,,0.08,WUHU216HW,2013-01-01 16:56:00,
2013-01-01 11:01:00,50.8,47.3,29.57,NNW,338,7.4,8.5,88,0.00,,,0.08,WUHU216HW,2013-01-01 17:01:00,
2013-01-01 11:06:00,50.8,47.6,29.57,ENE,68,6.9,8.5,89,0.00,,,0.08,WUHU216HW,2013-01-01 17:06:00,
2013-01-01 11:11:00,50.6,47.1,29.57,NNE,23,5.1,6.9,88,0.00,,,0.08,WUHU216HW,2013-01-01 17:11:00,
2013-01-01 11:16:00,50.2,46.7,29.57,NNE,23,5.1,6.3,88,0.00,,,0.08,WUHU216HW,2013-01-01 17:16:00,
2013-01-01 11:21:00,49.7,46.3,29.57,NNE,23,6.7,8.1,88,0.00,,,0.08,WUHU216HW,2013-01-01 17:21:00,
2013-01-01 11:27:00,49.5,46.7,29.57,North,0,4.3,8.1,90,0.00,,,0.08,WUHU216HW,2013-01-01 17:27:00,
2013-01-01 11:32:00,49.5,46.7,29.57,North,0,6.3,7.2,90,0.00,,,0.08,WUHU216HW,2013-01-01 17:32:00,
2013-01-01 11:37:00,49.7,46.5,29.57,NNE,23,6.9,6.9,89,0.00,,,0.08,WUHU216HW,2013-01-01 17:37:00,
2013-01-01 11:42:00,49.5,46.1,29.56,NNW,338,6.7,6.9,88,0.00,,,0.08,WUHU216HW,2013-01-01 17:42:00,
2013-01-01 11:47:00,49.5,46.1,29.57,NE,45,5.4,7.4,88,0.00,,,0.08,WUHU216HW,2013-01-01 17:47:00,
2013-01-01 11:52:00,49.3,45.9,29.57,North,0,7.8,7.8,88,0.00,,,0.08,WUHU216HW,2013-01-01 17:52:00,
2013-01-01 11:57:00,49.5,46.1,29.57,NE,45,5.1,7.8,88,0.00,,,0.08,WUHU216HW,2013-01-01 17:57:00,
2013-01-01 12:02:00,49.3,45.5,29.57,NNE,23,4.3,6.5,87,0.00,,,0.08,WUHU216HW,2013-01-01 18:02:00,
2013-01-01 12:07:00,49.5,46.1,29.56,NE,45,3.6,6.3,88,0.00,,,0.08,WUHU216HW,2013-01-01 18:07:00,
2013-01-01 12:12:00,49.3,45.9,29.56,North,0,5.6,6.0,88,0.00,,,0.08,WUHU216HW,2013-01-01 18:12:00,
2013-01-01 12:17:00,49.3,45.9,29.57,North,0,2.7,6.3,88,0.00,,,0.08,WUHU216HW,2013-01-01 18:17:00,
2013-01-01 12:22:00,49.3,45.9,29.57,North,0,4.3,6.3,88,0.00,,,0.08,WUHU216HW,2013-01-01 18:22:00,
2013-01-01 12:27:00,49.3,46.2,29.56,North,0,3.6,6.3,89,0.00,,,0.08,WUHU216HW,2013-01-01 18:27:00,
2013-01-01 12:32:00,49.3,45.9,29.56,North,0,4.0,6.3,88,0.00,,,0.08,WUHU216HW,2013-01-01 18:32:00,
2013-01-01 12:37:00,49.1,45.7,29.56,NW,315,3.8,6.3,88,0.00,,,0.08,WUHU216HW,2013-01-01 18:37:00,
2013-01-01 12:42:00,49.3,45.9,29.55,NE,45,4.0,6.3,88,0.00,,,0.08,WUHU216HW,2013-01-01 18:42:00,
2013-01-01 12:47:00,49.7,45.9,29.55,NNE,23,6.9,6.9,87,0.00,,,0.08,WUHU216HW,2013-01-01 18:47:00,
2013-01-01 12:52:00,49.7,45.9,29.55,NW,315,2.0,6.9,87,0.00,,,0.08,WUHU216HW,2013-01-01 18:52:00,
2013-01-01 12:57:00,49.9,45.8,29.55,North,0,6.5,7.4,86,0.00,,,0.08,WUHU216HW,2013-01-01 18:57:00,
2013-01-01 13:02:00,49.9,45.8,29.55,NE,45,1.8,7.4,86,0.00,,,0.08,WUHU216HW,2013-01-01 19:02:00,
2013-01-01 13:07:00,49.9,45.8,29.55,North,0,3.6,6.3,86,0.00,,,0.08,WUHU216HW,2013-01-01 19:07:00,
2013-01-01 13:12:00,49.9,45.8,29.55,NNE,23,3.8,5.4,86,0.00,,,0.08,WUHU216HW,2013-01-01 19:12:00,
2013-01-01 13:17:00,49.9,45.8,29.55,NNE,23,4.7,4.7,86,0.00,,,0.08,WUHU216HW,2013-01-01 19:17:00,
2013-01-01 13:22:00,50.0,45.9,29.54,NE,45,2.2,5.6,86,0.00,,,0.08,WUHU216HW,2013-01-01 19:22:00,
2013-01-01 13:27:00,50.4,46.0,29.54,NNW,338,5.6,5.6,85,0.00,,,0.08,WUHU216HW,2013-01-01 19:27:00,
2013-01-01 13:32:00,50.8,46.4,29.55,NNE,23,2.5,5.6,85,0.00,,,0.08,WUHU216HW,2013-01-01 19:32:00,
2013-01-01 13:37:00,51.1,46.5,29.54,NNW,338,2.9,5.6,84,0.00,,,0.08,WUHU216HW,2013-01-01 19:37:00,
2013-01-01 13:42:00,51.5,46.4,29.54,NNE,23,2.5,5.6,83,0.00,,,0.08,WUHU216HW,2013-01-01 19:42:00,
2013-01-01 13:47:00,51.5,46.2,29.54,NNE,23,4.7,5.4,82,0.00,,,0.08,WUHU216HW,2013-01-01 19:47:00,
2013-01-01 13:52:00,51.5,46.2,29.54,NNE,23,4.7,5.6,82,0.00,,,0.08,WUHU216HW,2013-01-01 19:52:00,
2013-01-01 13:57:00,51.3,46.0,29.53,North,0,4.3,5.6,82,0.00,,,0.08,WUHU216HW,2013-01-01 19:57:00,
2013-01-01 14:02:00,51.3,46.0,29.53,North,0,5.1,6.9,82,0.00,,,0.08,WUHU216HW,2013-01-01 20:02:00,
2013-01-01 14:07:00,51.7,46.0,29.53,North,0,5.4,6.9,81,0.00,,,0.08,WUHU216HW,2013-01-01 20:07:00,
2013-01-01 14:12:00,52.0,46.4,29.54,NNE,23,2.9,5.8,81,0.00,,,0.08,WUHU216HW,2013-01-01 20:12:00,
2013-01-01 14:17:00,52.0,46.4,29.54,NNE,23,4.0,5.8,81,0.00,,,0.08,WUHU216HW,2013-01-01 20:17:00,
2013-01-01 14:22:00,51.8,45.9,29.54,NNE,23,4.5,5.6,80,0.00,,,0.08,WUHU216HW,2013-01-01 20:22:00,
2013-01-01 14:27:00,52.0,45.7,29.54,North,0,3.1,5.8,79,0.00,,,0.08,WUHU216HW,2013-01-01 20:27:00,
2013-01-01 14:32:00,52.2,45.9,29.54,NNE,23,2.0,5.8,79,0.00,,,0.08,WUHU216HW,2013-01-01 20:32:00,
2013-01-01 14:37:00,52.2,45.5,29.54,NE,45,4.7,4.7,78,0.00,,,0.08,WUHU216HW,2013-01-01 20:37:00,
2013-01-01 14:42:00,52.2,45.2,29.54,NNE,23,5.4,5.6,77,0.00,,,0.08,WUHU216HW,2013-01-01 20:42:00,
2013-01-01 14:47:00,51.8,44.9,29.54,NNE,23,3.4,5.8,77,0.00,,,0.08,WUHU216HW,2013-01-01 20:47:00,
2013-01-01 14:53:00,52.0,45.4,29.55,NNE,23,4.7,5.8,78,0.00,,,0.08,WUHU216HW,2013-01-01 20:53:00,
2013-01-01 14:58:00,52.2,45.5,29.55,NNE,23,5.1,5.4,78,0.00,,,0.08,WUHU216HW,2013-01-01 20:58:00,
2013-01-01 15:03:00,52.2,45.5,29.55,NNE,23,6.0,6.0,78,0.00,,,0.08,WUHU216HW,2013-01-01 21:03:00,
2013-01-01 15:08:00,52.0,45.4,29.55,North,0,3.4,6.5,78,0.00,,,0.08,WUHU216HW,2013-01-01 21:08:00,
2013-01-01 15:13:00,51.8,44.9,29.55,NNW,338,1.8,6.5,77,0.00,,,0.08,WUHU216HW,2013-01-01 21:13:00,
2013-01-01 15:18:00,52.0,45.4,29.55,NE,45,4.0,6.3,78,0.00,,,0.08,WUHU216HW,2013-01-01 21:18:00,
2013-01-01 15:23:00,51.7,45.4,29.55,NNE,23,2.9,5.4,79,0.00,,,0.08,WUHU216HW,2013-01-01 21:23:00,
2013-01-01 15:28:00,51.5,44.8,29.55,NNE,23,2.9,5.4,78,0.00,,,0.08,WUHU216HW,2013-01-01 21:28:00,
2013-01-01 15:33:00,50.9,44.0,29.56,NNE,23,3.6,6.0,77,0.00,,,0.08,WUHU216HW,2013-01-01 21:33:00,
2013-01-01 15:38:00,50.4,43.7,29.56,NNE,23,3.6,6.0,78,0.00,,,0.08,WUHU216HW,2013-01-01 21:38:00,
2013-01-01 15:43:00,50.0,43.7,29.56,NE,45,4.9,6.9,79,0.00,,,0.08,WUHU216HW,2013-01-01 21:43:00,
2013-01-01 15:48:00,49.7,43.0,29.57,NE,45,4.5,6.9,78,0.00,,,0.08,WUHU216HW,2013-01-01 21:48:00,
2013-01-01 15:53:00,49.5,42.8,29.57,NNE,23,4.9,6.3,78,0.00,,,0.08,WUHU216HW,2013-01-01 21:53:00,
2013-01-01 15:58:00,49.5,43.2,29.57,North,0,2.5,6.3,79,0.00,,,0.08,WUHU216HW,2013-01-01 21:58:00,
2013-01-01 16:03:00,49.3,43.0,29.57,North,0,5.6,5.6,79,0.00,,,0.08,WUHU216HW,2013-01-01 22:03:00,
2013-01-01 16:08:00,49.3,43.4,29.57,NNW,338,4.0,5.6,80,0.00,,,0.08,WUHU216HW,2013-01-01 22:08:00,
2013-01-01 16:13:00,49.3,43.0,29.57,North,0,2.5,5.1,79,0.00,,,0.08,WUHU216HW,2013-01-01 22:13:00,
2013-01-01 16:18:00,49.1,42.5,29.57,NNW,338,3.1,4.9,78,0.00,,,0.08,WUHU216HW,2013-01-01 22:18:00,
2013-01-01 16:23:00,49.1,42.5,29.57,North,0,2.7,4.7,78,0.00,,,0.08,WUHU216HW,2013-01-01 22:23:00,
2013-01-01 16:28:00,49.0,42.3,29.57,NE,45,4.0,5.4,78,0.00,,,0.08,WUHU216HW,2013-01-01 22:28:00,
2013-01-01 16:33:00,48.6,41.9,29.57,NE,45,5.1,5.4,78,0.00,,,0.08,WUHU216HW,2013-01-01 22:33:00,
2013-01-01 16:38:00,48.4,42.1,29.57,NNE,23,5.1,6.0,79,0.00,,,0.08,WUHU216HW,2013-01-01 22:38:00,
2013-01-01 16:43:00,48.2,42.3,29.57,NE,45,3.4,6.0,80,0.00,,,0.08,WUHU216HW,2013-01-01 22:43:00,
2013-01-01 16:48:00,48.2,42.3,29.57,North,0,2.7,4.7,80,0.00,,,0.08,WUHU216HW,2013-01-01 22:48:00,
2013-01-01 16:53:00,48.2,42.3,29.58,North,0,3.4,4.7,80,0.00,,,0.08,WUHU216HW,2013-01-01 22:53:00,
2013-01-01 16:59:00,48.1,42.1,29.58,NE,45,4.7,5.8,80,0.00,,,0.08,WUHU216HW,2013-01-01 22:59:00,
2013-01-01 17:04:00,47.9,41.9,29.58,North,0,2.2,5.8,80,0.00,,,0.08,WUHU216HW,2013-01-01 23:04:00,
2013-01-01 17:09:00,47.9,41.9,29.58,NNE,23,3.8,5.1,80,0.00,,,0.08,WUHU216HW,2013-01-01 23:09:00,
2013-01-01 17:14:00,47.7,42.1,29.57,NNE,23,2.7,4.9,81,0.00,,,0.08,WUHU216HW,2013-01-01 23:14:00,
2013-01-01 17:19:00,47.5,41.9,29.58,NNE,23,3.4,4.9,81,0.00,,,0.08,WUHU216HW,2013-01-01 23:19:00,
2013-01-01 17:24:00,47.5,41.9,29.58,NNE,23,2.5,3.8,81,0.00,,,0.08,WUHU216HW,2013-01-01 23:24:00,
2013-01-01 17:29:00,47.5,41.9,29.57,North,0,3.8,4.0,81,0.00,,,0.08,WUHU216HW,2013-01-01 23:29:00,
2013-01-01 17:34:00,47.2,41.3,29.57,NE,45,2.2,4.9,80,0.00,,,0.08,WUHU216HW,2013-01-01 23:34:00,
2013-01-01 17:39:00,47.2,41.3,29.57,NNE,23,2.2,4.9,80,0.00,,,0.08,WUHU216HW,2013-01-01 23:39:00,
2013-01-01 17:44:00,47.0,41.1,29.57,NNE,23,1.8,4.3,80,0.00,,,0.08,WUHU216HW,2013-01-01 23:44:00,
2013-01-01 17:49:00,46.8,41.1,29.58,NE,45,2.7,3.4,80,0.00,,,0.08,WUHU216HW,2013-01-01 23:49:00,
2013-01-01 17:54:00,46.8,41.1,29.59,NE,45,1.8,3.4,80,0.00,,,0.08,WUHU216HW,2013-01-01 23:54:00,
2013-01-01 17:59:00,46.6,41.1,29.58,North,0,1.3,3.4,81,0.00,,,0.08,WUHU216HW,2013-01-01 23:59:00,
2013-01-01 18:04:00,46.4,41.0,29.59,East,90,1.1,3.1,81,0.00,,,0.08,WUHU216HW,2013-01-02 00:04:00,
2013-01-01 18:09:00,46.4,41.0,29.59,NNW,338,2.2,3.1,81,0.00,,,0.08,WUHU216HW,2013-01-02 00:09:00,
2013-01-01 18:14:00,46.3,41.1,29.58,NE,45,1.1,2.2,82,0.00,,,0.08,WUHU216HW,2013-01-02 00:14:00,
2013-01-01 18:19:00,46.1,41.0,29.59,NNE,23,0.9,1.6,82,0.00,,,0.08,WUHU216HW,2013-01-02 00:19:00,
2013-01-01 18:24:00,46.1,41.0,29.59,NNE,23,1.1,1.1,82,0.00,,,0.08,WUHU216HW,2013-01-02 00:24:00,
2013-01-01 18:29:00,45.9,41.0,29.59,NE,45,1.6,1.6,83,0.00,,,0.08,WUHU216HW,2013-01-02 00:29:00,
2013-01-01 18:34:00,45.7,40.9,29.59,NNE,23,0.9,1.6,83,0.00,,,0.08,WUHU216HW,2013-01-02 00:34:00,
2013-01-01 18:39:00,45.5,40.7,29.59,North,0,0.7,1.1,83,0.00,,,0.08,WUHU216HW,2013-01-02 00:39:00,
2013-01-01 18:44:00,45.4,40.5,29.59,NNE,23,0.4,1.1,83,0.00,,,0.08,WUHU216HW,2013-01-02 00:44:00,
2013-01-01 18:49:00,45.2,40.3,29.60,ENE,68,0.7,1.1,83,0.00,,,0.08,WUHU216HW,2013-01-02 00:49:00,
2013-01-01 18:54:00,45.0,40.5,29.60,NE,45,0.4,1.1,84,0.00,,,0.08,WUHU216HW,2013-01-02 00:54:00,
2013-01-01 18:59:00,45.0,40.5,29.60,NNE,23,0.4,0.7,84,0.00,,,0.08,WUHU216HW,2013-01-02 00:59:00,
2013-01-01 19:05:00,44.8,40.6,29.60,North,0,0.4,1.1,85,0.00,,,0.08,WUHU216HW,2013-01-02 01:05:00,
2013-01-01 19:10:00,44.8,40.6,29.60,ENE,68,0.0,1.1,85,0.00,,,0.08,WUHU216HW,2013-01-02 01:10:00,
2013-01-01 19:15:00,44.6,40.4,29.60,NE,45,0.4,2.2,85,0.00,,,0.08,WUHU216HW,2013-01-02 01:15:00,
2013-01-01 19:20:00,44.6,40.4,29.60,SE,135,0.9,2.2,85,0.00,,,0.08,WUHU216HW,2013-01-02 01:20:00,
2013-01-01 19:25:00,44.5,40.2,29.60,SE,135,1.1,1.1,85,0.00,,,0.08,WUHU216HW,2013-01-02 01:25:00,
2013-01-01 19:30:00,44.5,40.2,29.61,SE,135,0.4,1.1,85,0.00,,,0.08,WUHU216HW,2013-01-02 01:30:00,
2013-01-01 19:35:00,44.5,40.2,29.62,SE,135,1.8,1.8,85,0.00,,,0.08,WUHU216HW,2013-01-02 01:35:00,
2013-01-01 19:40:00,44.5,40.2,29.61,ESE,113,0.7,2.2,85,0.00,,,0.08,WUHU216HW,2013-01-02 01:40:00,
2013-01-01 19:45:00,44.6,40.7,29.62,SE,135,3.4,3.4,86,0.00,,,0.08,WUHU216HW,2013-01-02 01:45:00,
2013-01-01 19:50:00,44.6,40.7,29.62,ESE,113,0.9,3.4,86,0.00,,,0.08,WUHU216HW,2013-01-02 01:50:00,
2013-01-01 19:55:00,44.8,40.9,29.62,East,90,1.1,2.0,86,0.00,,,0.08,WUHU216HW,2013-01-02 01:55:00,
2013-01-01 20:00:00,44.8,40.9,29.62,NE,45,1.1,2.0,86,0.00,,,0.08,WUHU216HW,2013-01-02 02:00:00,
2013-01-01 20:05:00,44.5,40.2,29.61,ENE,68,0.7,1.8,85,0.00,,,0.08,WUHU216HW,2013-01-02 02:05:00,
2013-01-01 20:10:00,44.3,40.3,29.61,NNE,23,0.2,1.1,86,0.00,,,0.08,WUHU216HW,2013-01-02 02:10:00,
2013-01-01 20:15:00,44.3,40.3,29.60,NE,45,0.9,1.1,86,0.00,,,0.08,WUHU216HW,2013-01-02 02:15:00,
2013-01-01 20:20:00,43.9,40.0,29.60,NE,45,0.4,0.9,86,0.00,,,0.08,WUHU216HW,2013-01-02 02:20:00,
2013-01-01 20:25:00,43.9,40.3,29.61,NNE,23,0.0,0.9,87,0.00,,,0.08,WUHU216HW,2013-01-02 02:25:00,
2013-01-01 20:30:00,43.7,40.2,29.61,NE,45,0.4,0.4,87,0.00,,,0.08,WUHU216HW,2013-01-02 02:30:00,
2013-01-01 20:35:00,43.7,40.2,29.62,NNE,23,0.2,0.7,87,0.00,,,0.08,WUHU216HW,2013-01-02 02:35:00,
2013-01-01 20:40:00,43.6,40.0,29.62,North,0,0.7,0.7,87,0.00,,,0.08,WUHU216HW,2013-01-02 02:40:00,
2013-01-01 20:45:00,43.6,40.0,29.62,NNE,23,0.7,1.1,87,0.00,,,0.08,WUHU216HW,2013-01-02 02:45:00,
2013-01-01 20:51:00,43.6,40.2,29.61,North,0,1.1,1.3,88,0.00,,,0.08,WUHU216HW,2013-01-02 02:51:00,
2013-01-01 20:56:00,43.4,40.1,29.61,North,0,0.7,1.6,88,0.00,,,0.08,WUHU216HW,2013-01-02 02:56:00,
2013-01-01 21:01:00,43.4,40.1,29.61,ENE,68,1.8,1.8,88,0.00,,,0.08,WUHU216HW,2013-01-02 03:01:00,
2013-01-01 21:06:00,43.4,40.1,29.61,ENE,68,1.3,1.8,88,0.00,,,0.08,WUHU216HW,2013-01-02 03:06:00,
2013-01-01 21:11:00,43.2,39.6,29.62,NE,45,0.4,1.8,87,0.00,,,0.08,WUHU216HW,2013-01-02 03:11:00,
2013-01-01 21:16:00,43.0,39.4,29.62,NNE,23,1.1,1.8,87,0.00,,,0.08,WUHU216HW,2013-01-02 03:16:00,
2013-01-01 21:21:00,43.2,39.6,29.62,NNE,23,1.6,1.6,87,0.00,,,0.08,WUHU216HW,2013-01-02 03:21:00,
2013-01-01 21:26:00,43.0,39.7,29.62,NNE,23,1.6,1.6,88,0.00,,,0.08,WUHU216HW,2013-01-02 03:26:00,
2013-01-01 21:31:00,43.2,39.6,29.61,NNE,23,2.5,2.5,87,0.00,,,0.08,WUHU216HW,2013-01-02 03:31:00,
2013-01-01 21:36:00,43.0,39.4,29.61,NNE,23,2.2,2.5,87,0.00,,,0.08,WUHU216HW,2013-01-02 03:36:00,
2013-01-01 21:41:00,43.0,39.4,29.61,NNE,23,1.8,2.5,87,0.00,,,0.08,WUHU216HW,2013-01-02 03:41:00,
2013-01-01 21:46:00,43.2,39.6,29.61,NE,45,2.2,2.9,87,0.00,,,0.08,WUHU216HW,2013-01-02 03:46:00,
2013-01-01 21:51:00,43.2,39.6,29.61,NNE,23,2.5,2.9,87,0.00,,,0.08,WUHU216HW,2013-01-02 03:51:00,
2013-01-01 21:56:00,43.0,39.4,29.62,North,0,1.6,2.5,87,0.00,,,0.08,WUHU216HW,2013-01-02 03:56:00,
2013-01-01 22:01:00,42.8,39.5,29.62,North,0,1.8,1.8,88,0.00,,,0.08,WUHU216HW,2013-01-02 04:01:00,
2013-01-01 22:06:00,42.8,39.5,29.61,NE,45,1.6,3.4,88,0.00,,,0.08,WUHU216HW,2013-01-02 04:06:00,
2013-01-01 22:11:00,42.8,39.3,29.61,NNE,23,2.2,3.4,87,0.00,,,0.08,WUHU216HW,2013-01-02 04:11:00,
2013-01-01 22:16:00,42.8,39.3,29.61,North,0,2.2,3.1,87,0.00,,,0.08,WUHU216HW,2013-01-02 04:16:00,
2013-01-01 22:21:00,43.0,39.4,29.61,North,0,3.4,3.8,87,0.00,,,0.08,WUHU216HW,2013-01-02 04:21:00,
2013-01-01 22:26:00,43.0,39.1,29.61,East,90,1.3,3.8,86,0.00,,,0.08,WUHU216HW,2013-01-02 04:26:00,
2013-01-01 22:31:00,43.2,39.2,29.62,NE,45,1.8,3.4,86,0.00,,,0.08,WUHU216HW,2013-01-02 04:31:00,
2013-01-01 22:36:00,43.0,39.1,29.62,NNE,23,1.6,2.5,86,0.00,,,0.08,WUHU216HW,2013-01-02 04:36:00,
2013-01-01 22:41:00,43.0,39.1,29.62,NE,45,1.3,3.4,86,0.00,,,0.08,WUHU216HW,2013-01-02 04:41:00,
2013-01-01 22:46:00,42.8,38.6,29.62,NE,45,2.7,3.4,85,0.00,,,0.08,WUHU216HW,2013-01-02 04:46:00,
2013-01-01 22:51:00,42.8,38.6,29.62,NNE,23,1.3,3.4,85,0.00,,,0.08,WUHU216HW,2013-01-02 04:51:00,
2013-01-01 22:56:00,42.7,38.4,29.63,North,0,1.1,3.4,85,0.00,,,0.08,WUHU216HW,2013-01-02 04:56:00,
2013-01-01 23:00:00,42.5,38.3,29.63,NNE,23,1.1,1.8,85,0.00,,,0.08,WUHU216HW,2013-01-02 05:00:00,
2013-01-01 23:05:00,42.3,38.1,29.63,NE,45,1.1,1.8,85,0.00,,,0.08,WUHU216HW,2013-01-02 05:05:00,
2013-01-01 23:10:00,42.3,38.1,29.63,North,0,1.1,2.0,85,0.00,,,0.08,WUHU216HW,2013-01-02 05:10:00,
2013-01-01 23:15:00,42.1,37.9,29.63,ENE,68,0.4,2.0,85,0.00,,,0.08,WUHU216HW,2013-01-02 05:15:00,
2013-01-01 23:20:00,42.1,37.9,29.63,NNE,23,1.1,1.3,85,0.00,,,0.08,WUHU216HW,2013-01-02 05:20:00,
2013-01-01 23:25:00,42.1,37.9,29.63,NNE,23,1.6,1.8,85,0.00,,,0.08,WUHU216HW,2013-01-02 05:25:00,
2013-01-01 23:30:00,41.9,38.0,29.62,North,0,3.4,3.4,86,0.00,,,0.08,WUHU216HW,2013-01-02 05:30:00,
2013-01-01 23:35:00,41.9,38.0,29.63,NNE,23,1.8,3.4,86,0.00,,,0.08,WUHU216HW,2013-01-02 05:35:00,
2013-01-01 23:40:00,41.9,37.7,29.63,NNE,23,5.1,5.1,85,0.00,,,0.08,WUHU216HW,2013-01-02 05:40:00,
2013-01-01 23:45:00,42.1,37.9,29.63,NNE,23,2.5,5.1,85,0.00,,,0.08,WUHU216HW,2013-01-02 05:45:00,
2013-01-01 23:50:00,42.3,37.4,29.64,NNE,23,1.8,4.3,83,0.00,,,0.08,WUHU216HW,2013-01-02 05:50:00,
2013-01-01 23:56:00,42.5,37.6,29.63,North,0,1.6,4.3,83,0.00,,,0.08,WUHU216HW,2013-01-02 05:56:00,